Terminal Aerodrome Forecast
Issued by NWS Cleveland, OH

Home | Current Version | Previous Version | Text Only | Print | Product List | Glossary Off
Versions: 1 2 3 4 5 6 7 8 9 10 11 12 13 14 15 16 17 18 19 20 21 22 23 24

287
FTUS41 KCLE 231856 AAA
TAFMFD
TAF AMD
KMFD 231856Z 2319/2418 10009KT P6SM BKN200
     FM240700 12004KT 6SM BR BKN050
     FM241400 13007KT 6SM -SHRA BKN035=

USA.gov is the U.S. government's official web portal to all federal, state and local government web resources and services.